Location: Cheyres
(46.8153°N, 6.7877°E)
Time: 13:49:28
(UTC+00:00)

QB50P2 - Visible Passes

Search period start: 25 June 2022 00:00
Search period end: 05 July 2022 00:00
Orbit: 589 x 607 km, 97.9° (Epoch: 24 June)

Date Brightness Start Highest point End Pass type
(mag) Time Alt. Az. Time Alt. Az. Time Alt. Az.
25 Jun ? 00:39:58 10° NNE 00:44:05 48° E 00:45:46 30° SSE visible
25 Jun ? 02:16:27 10° NNW 02:19:25 19° WNW 02:22:22 10° WSW visible
26 Jun ? 00:50:23 10° NNE 00:54:36 63° ESE 00:56:22 33° S visible
26 Jun ? 02:27:18 10° NNW 02:29:47 15° WNW 02:32:15 10° W visible
27 Jun ? 01:00:50 10° NNE 01:05:04 81° ESE 01:06:57 33° S visible
27 Jun ? 02:38:22 10° NW 02:40:08 12° WNW 02:41:54 10° W visible
27 Jun ? 23:38:15 10° ENE 23:39:21 11° E 23:40:27 10° ESE visible
28 Jun ? 01:11:19 10° N 01:15:33 79° WNW 01:17:32 31° SSW visible
28 Jun ? 23:47:41 10° ENE 23:49:57 14° E 23:51:24 12° ESE visible
29 Jun ? 01:21:50 10° N 01:26:01 61° WNW 01:28:07 28° SW visible
29 Jun ? 23:57:37 10° NE 00:00:32 18° E 00:01:58 15° ESE visible
30 Jun ? 01:32:22 10° N 01:36:27 48° WNW 01:38:41 24° SW visible
01 Jul ? 00:07:44 10° NE 00:11:06 22° E 00:12:32 19° ESE visible
01 Jul ? 01:42:57 10° N 01:46:52 38° WNW 01:49:15 20° SW visible
02 Jul ? 00:17:56 10° NE 00:21:38 28° E 00:23:06 23° SE visible
02 Jul ? 01:53:34 10° N 01:57:16 30° WNW 01:59:48 17° WSW visible
03 Jul ? 00:28:13 10° NNE 00:32:09 36° E 00:33:39 27° SE visible
03 Jul ? 02:04:13 10° N 02:07:39 24° WNW 02:10:22 14° WSW visible
04 Jul ? 00:38:34 10° NNE 00:42:40 46° E 00:44:13 31° SSE visible
04 Jul ? 02:14:56 10° NNW 02:18:01 20° WNW 02:20:55 11° WSW visible
